{"data":{"norad_id":49734,"intl_designator":"2021-115L","name":"STARLINK-3238","alt_names":[],"object_type":"PAYLOAD","status":"ACTIVE","operator":null,"country":"US","launch_date":"2021-12-02","launch_site_code":"AFETR","launch_vehicle":null,"mission":null,"orbit_class":"UNKNOWN","rcs_meters":null,"size_class":null,"mass_kg":null,"dimensions":null,"purposes":["comms"],"wikipedia_slug":null,"has_3d_model":false,"image_url":null,"decayed_at":null,"tle_current":{"epoch":"2026-05-25T01:01:18.447168Z","epoch_age_seconds":71143,"freshness":"FRESH","line1":"1 49734U 21115L   26145.04257462  .00000759  00000+0  65788-4 0  9993","line2":"2 49734  53.2130 166.3850 0000940  66.3110 293.7980 15.08835006247065","mean_motion":15.08835006,"eccentricity":9.4e-5,"inclination_deg":53.213,"raan_deg":166.385,"arg_perigee_deg":66.311,"mean_anomaly_deg":293.798,"bstar":6.5788e-5,"rev_number":24706,"period_min":95.437870560646,"perigee_km":539.10837147488,"apogee_km":540.40893585777,"semimajor_km":6917.8956536663,"source":"CELESTRAK","updated_at":"2026-05-25T13:38:16.832949Z"}}}